Home > Weather > Rapid City > Past weeks

Flag for USA Past Weather in Rapid City, South Dakota, USA — Yesterday and Last 2 Weeks

Now
65 °F

Overcast.


Feels Like: 65 °F
Forecast: 58 / 85 °F
Wind: 3 mph from West

Location: Ellsworth Air Force Base

Current Time: Jul 24, 2016 at 8:56:33 AM

Latest Report: Jul 24, 2016 at 7:58 AM


Visibility: 10 mi

Pressure: 30.07 "Hg (26.82 "Hg at 977m altitude)

Humidity: 78%

Dew Point: 58 °F

Location of Rapid CityLocation

Past Weather in Rapid City — Graph

°F

Rapid City Temperature Yesterday

Maximum temperature yesterday: 90 °F (at 3:59 PM)
Minimum temperature yesterday: 68 °F (at 5:58 AM)
Average temperature yesterday: 79 °F

High & Low Weather Summary for the Past Weeks

 TemperatureHumidityPressure
High101 °F (Jul 20, 4:58 PM)92% (Jul 15, 6:58 AM)30.17 "Hg (Jul 15, 6:58 AM)
Low53 °F (Jul 12, 1:58 AM)9% (Jul 11, 1:58 PM)29.43 "Hg (Jul 10, 6:58 PM)
Average76 °F49%29.88 "Hg
* Reported Jul 9 7:58 AM — Jul 24 7:58 AM, Rapid City, Weather by CustomWeather, © 2016

Note: Actual official high and low records may vary slightly from our data, if they occured in-between our weather recording intervals... More about our weather records

Advertising

Rapid City Weather History for the Previous 24 Hours

Scroll right to see more
 ConditionsComfort  
Time TempWeatherWind HumidityBarometerVisibility
7:58 AM
Sun, Jul 24
65 °FOvercast.3 mph78%30.07 "Hg10 mi
6:58 AM62 °FPartly sunny.5 mph82%30.05 "Hg10 mi
4:58 AM66 °FOvercast.2 mph62%N/A10 mi
3:58 AM67 °FThunderstorms. Low clouds.6 mph51%30.01 "Hg9 mi
2:58 AM70 °FPassing clouds.8 mph38%30.00 "Hg10 mi
1:58 AM70 °FClear.10 mph37%30.02 "Hg10 mi
12:58 AM72 °FClear.8 mph33%30.02 "Hg10 mi
11:58 PM
Sat, Jul 23
69 °FClear.9 mph35%29.99 "Hg10 mi
10:58 PM73 °FClear.12 mph29%29.95 "Hg10 mi
9:58 PM76 °FClear.5 mph26%29.95 "Hg10 mi
8:58 PM78 °FClear.6 mph26%29.92 "Hg10 mi
7:58 PM84 °FSunny.10 mph23%29.88 "Hg10 mi
6:58 PM87 °FSunny.16 mph20%29.86 "Hg10 mi
5:58 PM88 °FSunny.21 mph20%29.86 "Hg10 mi
4:58 PM89 °FSunny.20 mph20%29.84 "Hg10 mi
3:59 PM90 °FSunny.23 mph20%29.93 "Hg10 mi
2:58 PM88 °FSunny.22 mph20%29.85 "Hg10 mi
1:58 PM88 °FSunny.25 mph21%29.83 "Hg10 mi
12:58 PM87 °FSunny.20 mph22%29.87 "Hg10 mi
11:58 AM86 °FSunny.25 mph25%29.85 "Hg10 mi
10:58 AM84 °FSunny.28 mph28%29.83 "Hg10 mi
9:58 AM82 °FSunny.33 mph30%29.79 "Hg10 mi
8:58 AM83 °FSunny.37 mph39%29.76 "Hg10 mi
Weather by CustomWeather, © 2016

See weather overviewHow to use our weather pages